User: anonymous   Login
Location: Unspecified
(0.0000°N, 0.0000°E)
Time: 09:03:05
(UTC+00:00)
Language:

AIST 1 - Orbit

View from above orbital plane
View from above orbital plane
View from above satellite
View from above satellite

Ground track
Ground track

The orbit data is extracted from the following two-line orbital elements,

1 39492U 13078C   19345.89540304 +.00000137 +00000-0 +12316-4 0  9999
2 39492 082.4214 034.9389 0018319 269.5740 090.3387 14.87862530323182
Epoch (UTC): 11 December 2019 21:29:22
Eccentricity: 0.0018319
inclination: 82.4214°
perigee height: 592 km
apogee height: 617 km
right ascension of ascending node: 34.9389°
argument of perigee: 269.5740°
revolutions per day: 14.87862530
mean anomaly at epoch: 90.3387°
orbit number at epoch: 32318

The dashed part of the orbit path shows where the satellite is in the earth's shadow,  

DLR